ORBCOMM FM104 [+]

Last updated on Sept. 7, 2017, 12:18 a.m. UTC

1 40090U 14040E   17249.57433075 -.00000057  00000-0  26008-4 0  9992
2 40090  47.0068  56.1795 0017940 236.1642 123.7534 14.53235547167354
UTC
Height (km)
Latitude
Longitude
Inclination
Orbital Period
UTC large
Height (km)
Speed (km/s)
/
Latitude / Longitude
Inclination (degrees)
Orbital Period (minutes)
Azimuth
Elevation
Range (km)
Doppler Factor
iOS Compass Heading
iOS Angle